| time (UTC) | temp F | wind direction | speed knots | gust knots | rain 1hr in | rain 24hr in | rain mn in | humidity % | barometer mb |
| 20260507065022 | 52 | 143 | 2.6 | 6.1 | 0.00 | 0.29 | 0.00 | 92 | 1012.9 |
| 20260507064026 | 51 | 152 | 4.3 | 7.0 | 0.00 | 0.29 | 0.00 | 94 | 1012.8 |
| 20260507063028 | 51 | 162 | 1.7 | 5.2 | 0.00 | 0.29 | 0.00 | 95 | 1012.9 |
| 20260507062032 | 51 | 148 | 2.6 | 3.5 | 0.00 | 0.29 | 0.00 | 95 | 1012.9 |
| 20260507061019 | 51 | 126 | 0.9 | 1.7 | 0.00 | 0.29 | 0.00 | 93 | 1012.8 |
| 20260507060021 | 51 | 143 | 0.9 | 2.6 | 0.00 | 0.29 | 0.00 | 92 | 1012.6 |
| 20260507055024 | 51 | 125 | 0.0 | 0.9 | 0.00 | 0.29 | 0.00 | 93 | 1012.7 |
| 20260507054026 | 51 | 113 | 0.0 | 1.7 | 0.00 | 0.29 | 0.00 | 94 | 1012.6 |
| 20260507053030 | 51 | 121 | 0.0 | 0.9 | 0.00 | 0.29 | 0.00 | 94 | 1012.6 |
| 20260507052016 | 50 | 95 | 0.0 | 0.9 | 0.00 | 0.29 | 0.00 | 95 | 1012.5 |
| 20260507051019 | 50 | 0.0 | 0.0 | 0.00 | 0.29 | 0.00 | 97 | 1012.3 | |
| 20260507050022 | 50 | 93 | 0.0 | 0.9 | 0.00 | 0.29 | 0.00 | 97 | 1012.2 |
| 20260507045025 | 50 | 82 | 0.0 | 0.9 | 0.00 | 0.29 | 0.00 | 99 | 1012.1 |
| 20260507044028 | 48 | 0.0 | 0.0 | 0.00 | 0.29 | 0.00 | 99 | 1012.0 | |
| 20260507043032 | 48 | 0.0 | 0.0 | 0.00 | 0.29 | 0.00 | 99 | 1012.0 | |
| 20260507042019 | 48 | 102 | 0.0 | 0.9 | 0.00 | 0.29 | 0.00 | 99 | 1011.8 |
| 20260507041021 | 48 | 0.0 | 0.0 | 0.00 | 0.29 | 0.00 | 99 | 1011.6 | |
| 20260507040024 | 47 | 0.0 | 0.0 | 0.00 | 0.29 | 0.00 | 99 | 1011.7 | |
| 20260507035028 | 47 | 0.0 | 0.0 | 0.00 | 0.29 | 0.00 | 99 | 1011.6 | |
| 20260507034030 | 47 | 0.0 | 0.0 | 0.00 | 0.29 | 0.00 | 98 | 1011.4 | |
| 20260507033016 | 47 | 121 | 0.9 | 0.9 | 0.00 | 0.29 | 0.00 | 99 | 1011.4 |
| 20260507032019 | 47 | 128 | 0.9 | 1.7 | 0.00 | 0.29 | 0.00 | 99 | 1011.3 |
| 20260507031024 | 47 | 0.0 | 0.0 | 0.00 | 0.29 | 0.00 | 99 | 1011.3 | |
| 20260507030025 | 48 | 120 | 0.9 | 0.9 | 0.00 | 0.29 | 0.00 | 98 | 1011.2 |
| 20260507025028 | 48 | 130 | 1.7 | 1.7 | 0.00 | 0.29 | 0.00 | 98 | 1011.2 |
| 20260507024031 | 48 | 121 | 0.9 | 1.7 | 0.00 | 0.29 | 0.00 | 98 | 1011.2 |
| 20260507023018 | 48 | 128 | 0.0 | 0.9 | 0.00 | 0.29 | 0.00 | 99 | 1011.3 |
| 20260507022021 | 48 | 117 | 0.0 | 0.9 | 0.00 | 0.29 | 0.00 | 99 | 1011.3 |
| 20260507021025 | 48 | 0.0 | 0.0 | 0.00 | 0.29 | 0.00 | 98 | 1011.3 | |
| 20260507020027 | 48 | 0.0 | 0.0 | 0.00 | 0.29 | 0.00 | 98 | 1011.2 | |
| 20260507015030 | 49 | 118 | 0.0 | 0.9 | 0.00 | 0.29 | 0.00 | 97 | 1011.2 |
| 20260507014017 | 49 | 135 | 1.7 | 2.6 | 0.00 | 0.29 | 0.00 | 97 | 1011.1 |
| 20260507013019 | 49 | 140 | 1.7 | 3.5 | 0.00 | 0.29 | 0.00 | 98 | 1011.0 |
| 20260507012022 | 49 | 108 | 0.9 | 2.6 | 0.00 | 0.29 | 0.00 | 98 | 1010.8 |
| 20260507011025 | 49 | 102 | 0.0 | 1.7 | 0.00 | 0.29 | 0.00 | 98 | 1010.8 |
| 20260507010029 | 50 | 127 | 1.7 | 2.6 | 0.00 | 0.29 | 0.00 | 95 | 1010.6 |
| 20260507005032 | 50 | 160 | 3.5 | 6.1 | 0.00 | 0.29 | 0.00 | 95 | 1010.5 |
| 20260507004018 | 50 | 157 | 2.6 | 5.2 | 0.00 | 0.29 | 0.00 | 95 | 1010.4 |
| 20260507003021 | 51 | 160 | 2.6 | 3.5 | 0.00 | 0.29 | 0.00 | 94 | 1010.4 |
| 20260507002025 | 51 | 181 | 2.6 | 6.1 | 0.00 | 0.29 | 0.00 | 94 | 1010.5 |
| 20260507001027 | 51 | 167 | 2.6 | 5.2 | 0.00 | 0.29 | 0.00 | 94 | 1010.5 |
| 20260507000030 | 52 | 179 | 2.6 | 5.2 | 0.00 | 0.29 | 0.00 | 94 | 1010.5 |
| 20260506235017 | 52 | 192 | 2.6 | 6.1 | 0.00 | 0.29 | 0.00 | 93 | 1010.5 |
| 20260506234019 | 52 | 174 | 2.6 | 5.2 | 0.00 | 0.29 | 0.00 | 93 | 1010.4 |
| 20260506233023 | 52 | 130 | 0.9 | 3.5 | 0.00 | 0.30 | 0.00 | 94 | 1010.3 |
| 20260506232026 | 52 | 155 | 1.7 | 3.5 | 0.00 | 0.30 | 0.00 | 94 | 1010.3 |
| 20260506231028 | 52 | 168 | 0.9 | 2.6 | 0.00 | 0.30 | 0.00 | 93 | 1010.3 |
| 20260506230032 | 52 | 170 | 1.7 | 5.2 | 0.00 | 0.30 | 0.00 | 94 | 1010.2 |
| 20260506225018 | 53 | 149 | 1.7 | 5.2 | 0.00 | 0.30 | 0.00 | 93 | 1010.2 |
| 20260506224022 | 53 | 213 | 1.7 | 5.2 | 0.00 | 0.30 | 0.00 | 93 | 1010.1 |
| 20260506223024 | 53 | 246 | 2.6 | 5.2 | 0.00 | 0.30 | 0.00 | 94 | 1010.1 |
| 20260506222027 | 53 | 178 | 1.7 | 3.5 | 0.00 | 0.30 | 0.00 | 96 | 1009.9 |
| 20260506221029 | 53 | 195 | 0.9 | 3.5 | 0.00 | 0.31 | 0.00 | 97 | 1009.7 |
| 20260506220017 | 53 | 127 | 0.9 | 2.6 | 0.01 | 0.31 | 0.31 | 96 | 1009.5 |
| 20260506215019 | 53 | 166 | 0.9 | 5.2 | 0.01 | 0.31 | 0.31 | 96 | 1009.4 |
| 20260506214024 | 53 | 138 | 0.9 | 1.7 | 0.01 | 0.31 | 0.31 | 97 | 1009.3 |
| 20260506213027 | 53 | 168 | 2.6 | 3.5 | 0.01 | 0.31 | 0.31 | 96 | 1009.2 |
| 20260506212029 | 54 | 190 | 1.7 | 5.2 | 0.01 | 0.31 | 0.31 | 97 | 1009.2 |
| 20260506211031 | 54 | 173 | 1.7 | 3.5 | 0.01 | 0.31 | 0.31 | 96 | 1009.2 |
| 20260506210018 | 54 | 181 | 2.6 | 5.2 | 0.00 | 0.30 | 0.30 | 96 | 1009.1 |
| 20260506205022 | 54 | 169 | 1.7 | 5.2 | 0.00 | 0.30 | 0.30 | 94 | 1009.0 |
| 20260506204024 | 54 | 239 | 4.3 | 8.7 | 0.00 | 0.30 | 0.30 | 94 | 1009.0 |
| 20260506203027 | 54 | 243 | 4.3 | 11.3 | 0.00 | 0.30 | 0.30 | 96 | 1008.8 |
| 20260506202032 | 54 | 192 | 2.6 | 6.1 | 0.00 | 0.30 | 0.30 | 98 | 1008.6 |
| 20260506201017 | 54 | 196 | 2.6 | 8.7 | 0.00 | 0.30 | 0.30 | 98 | 1008.4 |
| 20260506200020 | 55 | 201 | 2.6 | 6.1 | 0.00 | 0.30 | 0.30 | 99 | 1008.3 |
| 20260506195021 | 55 | 242 | 4.3 | 9.6 | 0.00 | 0.30 | 0.30 | 99 | 1008.0 |
| 20260506194022 | 55 | 177 | 3.5 | 6.1 | 0.00 | 0.30 | 0.30 | 99 | 1007.3 |
| 20260506193023 | 55 | 164 | 1.7 | 2.6 | 0.00 | 0.30 | 0.30 | 99 | 1007.0 |
| 20260506192025 | 56 | 137 | 0.9 | 1.7 | 0.00 | 0.30 | 0.30 | 99 | 1006.6 |
| 20260506191028 | 55 | 126 | 1.7 | 2.6 | 0.00 | 0.30 | 0.30 | 99 | 1006.5 |
| 20260506190030 | 56 | 137 | 0.0 | 1.7 | 0.00 | 0.31 | 0.30 | 99 | 1006.4 |
| 20260506185031 | 56 | 154 | 1.7 | 2.6 | 0.01 | 0.32 | 0.30 | 99 | 1006.2 |
| 20260506184017 | 56 | 84 | 0.9 | 1.7 | 0.03 | 0.34 | 0.30 | 99 | 1005.8 |
| 20260506183020 | 56 | 312 | 3.5 | 6.1 | 0.08 | 0.34 | 0.30 | 99 | 1005.6 |
| 20260506182022 | 56 | 44 | 1.7 | 7.0 | 0.16 | 0.34 | 0.30 | 99 | 1005.3 |
| 20260506181025 | 56 | 85 | 0.0 | 1.7 | 0.26 | 0.34 | 0.30 | 99 | 1005.5 |
| 20260506180027 | 56 | 76 | 0.9 | 2.6 | 0.28 | 0.34 | 0.30 | 99 | 1005.5 |
| 20260506175030 | 56 | 356 | 4.3 | 9.6 | 0.27 | 0.33 | 0.29 | 99 | 1005.3 |
| 20260506174017 | 56 | 20 | 3.5 | 9.6 | 0.25 | 0.31 | 0.27 | 98 | 1005.2 |
| 20260506173021 | 57 | 285 | 7.0 | 20.9 | 0.20 | 0.26 | 0.22 | 97 | 1005.1 |
| 20260506172023 | 57 | 270 | 11.3 | 20.0 | 0.12 | 0.18 | 0.14 | 95 | 1004.7 |
| 20260506171030 | 65 | 299 | 11.3 | 25.2 | 0.02 | 0.08 | 0.04 | 72 | 1003.2 |
| 20260506170017 | 69 | 261 | 4.3 | 9.6 | 0.00 | 0.06 | 0.02 | 48 | 1002.2 |
| 20260506165021 | 70 | 0.0 | 0.0 | 0.00 | 0.06 | 0.02 | 47 | 1001.4 | |
| 20260506164022 | 71 | 0.0 | 0.0 | 0.00 | 0.06 | 0.02 | 42 | 1001.2 | |
| 20260506163024 | 71 | 0.0 | 0.0 | 0.00 | 0.06 | 0.02 | 39 | 1001.4 | |
| 20260506162027 | 72 | 0.0 | 0.0 | 0.00 | 0.06 | 0.02 | 38 | 1001.7 | |
| 20260506161028 | 72 | 90 | 0.0 | 0.9 | 0.00 | 0.06 | 0.02 | 38 | 1002.0 |
| 20260506160032 | 73 | 0.0 | 0.0 | 0.00 | 0.06 | 0.02 | 39 | 1002.1 | |
| 20260506155018 | 73 | 73 | 0.0 | 1.7 | 0.00 | 0.06 | 0.02 | 39 | 1002.2 |
| 20260506154022 | 74 | 76 | 0.0 | 1.7 | 0.00 | 0.06 | 0.02 | 38 | 1002.3 |
| 20260506153024 | 76 | 57 | 1.7 | 3.5 | 0.00 | 0.06 | 0.02 | 36 | 1002.3 |
| 20260506152026 | 75 | 82 | 1.7 | 3.5 | 0.00 | 0.06 | 0.02 | 36 | 1002.4 |
| 20260506151029 | 76 | 61 | 0.9 | 5.2 | 0.00 | 0.06 | 0.02 | 35 | 1002.6 |
| 20260506150031 | 76 | 61 | 2.6 | 5.2 | 0.00 | 0.06 | 0.02 | 36 | 1002.8 |
| 20260506145019 | 76 | 59 | 1.7 | 7.0 | 0.00 | 0.06 | 0.02 | 36 | 1002.9 |
| 20260506144021 | 75 | 60 | 2.6 | 5.2 | 0.00 | 0.06 | 0.02 | 37 | 1003.0 |
| 20260506143023 | 75 | 31 | 1.7 | 5.2 | 0.00 | 0.06 | 0.02 | 37 | 1003.1 |
| 20260506142027 | 74 | 62 | 1.7 | 6.1 | 0.00 | 0.06 | 0.02 | 39 | 1003.1 |
| 20260506141029 | 74 | 58 | 1.7 | 3.5 | 0.00 | 0.06 | 0.02 | 39 | 1003.3 |
| 20260506140016 | 74 | 43 | 1.7 | 6.1 | 0.00 | 0.06 | 0.02 | 40 | 1003.5 |
| 20260506135019 | 73 | 62 | 2.6 | 7.8 | 0.00 | 0.06 | 0.02 | 42 | 1003.7 |
| 20260506134022 | 73 | 50 | 2.6 | 6.1 | 0.00 | 0.06 | 0.02 | 43 | 1003.7 |
| 20260506133025 | 75 | 76 | 1.7 | 7.0 | 0.00 | 0.06 | 0.02 | 41 | 1004.0 |
| 20260506132028 | 73 | 90 | 2.6 | 6.1 | 0.00 | 0.06 | 0.02 | 43 | 1004.1 |
| 20260506131030 | 75 | 74 | 1.7 | 3.5 | 0.00 | 0.06 | 0.02 | 42 | 1004.1 |
| 20260506130019 | 74 | 45 | 1.7 | 8.7 | 0.00 | 0.06 | 0.02 | 44 | 1004.2 |
| 20260506125020 | 73 | 75 | 2.6 | 6.1 | 0.00 | 0.06 | 0.02 | 45 | 1004.3 |
| 20260506124024 | 73 | 43 | 2.6 | 8.7 | 0.00 | 0.06 | 0.02 | 45 | 1004.4 |
| 20260506123026 | 74 | 31 | 1.7 | 6.1 | 0.00 | 0.06 | 0.02 | 43 | 1004.7 |
| 20260506122029 | 72 | 72 | 1.7 | 7.0 | 0.00 | 0.06 | 0.02 | 48 | 1004.8 |
| 20260506121017 | 72 | 83 | 0.9 | 5.2 | 0.00 | 0.06 | 0.02 | 49 | 1005.1 |
| 20260506120019 | 75 | 34 | 1.7 | 6.1 | 0.00 | 0.06 | 0.02 | 49 | 1005.2 |
| 20260506115022 | 72 | 87 | 1.7 | 3.5 | 0.00 | 0.06 | 0.02 | 52 | 1005.5 |
| 20260506114025 | 70 | 75 | 0.9 | 2.6 | 0.00 | 0.06 | 0.02 | 56 | 1005.6 |
| 20260506113028 | 69 | 120 | 2.6 | 5.2 | 0.00 | 0.06 | 0.02 | 56 | 1005.6 |
| 20260506112032 | 71 | 52 | 0.9 | 5.2 | 0.00 | 0.06 | 0.02 | 56 | 1005.8 |
| 20260506111017 | 69 | 90 | 0.9 | 2.6 | 0.00 | 0.06 | 0.02 | 58 | 1006.0 |
| 20260506110020 | 70 | 101 | 0.9 | 1.7 | 0.00 | 0.06 | 0.02 | 57 | 1006.1 |
| 20260506105023 | 68 | 67 | 0.9 | 3.5 | 0.00 | 0.06 | 0.02 | 59 | 1006.3 |
| 20260506104016 | 70 | 54 | 1.7 | 6.1 | 0.00 | 0.06 | 0.02 | 57 | 1006.4 |
| 20260506103018 | 69 | 76 | 1.7 | 5.2 | 0.00 | 0.06 | 0.02 | 58 | 1006.5 |
| 20260506102021 | 69 | 56 | 2.6 | 7.0 | 0.00 | 0.06 | 0.02 | 60 | 1006.6 |
| 20260506101024 | 68 | 92 | 0.9 | 1.7 | 0.00 | 0.06 | 0.02 | 60 | 1006.8 |
| 20260506100018 | 66 | 57 | 1.7 | 3.5 | 0.00 | 0.06 | 0.02 | 61 | 1006.9 |
| 20260506095021 | 67 | 66 | 1.7 | 3.5 | 0.00 | 0.06 | 0.02 | 61 | 1006.9 |
| 20260506094024 | 68 | 63 | 1.7 | 5.2 | 0.00 | 0.06 | 0.02 | 60 | 1006.9 |
| 20260506093026 | 66 | 81 | 1.7 | 3.5 | 0.00 | 0.06 | 0.02 | 62 | 1007.0 |
| 20260506092030 | 67 | 77 | 0.9 | 2.6 | 0.00 | 0.06 | 0.02 | 63 | 1006.9 |
| 20260506091016 | 67 | 70 | 1.7 | 5.2 | 0.00 | 0.06 | 0.02 | 66 | 1007.0 |
| 20260506090020 | 67 | 56 | 1.7 | 5.2 | 0.00 | 0.06 | 0.02 | 65 | 1007.2 |
| 20260506085023 | 66 | 57 | 1.7 | 6.1 | 0.00 | 0.06 | 0.02 | 68 | 1007.3 |
| 20260506084025 | 65 | 81 | 0.9 | 1.7 | 0.00 | 0.06 | 0.02 | 69 | 1007.4 |
| 20260506083029 | 63 | 59 | 1.7 | 5.2 | 0.00 | 0.06 | 0.02 | 73 | 1007.5 |
| 20260506082031 | 64 | 54 | 0.9 | 5.2 | 0.00 | 0.06 | 0.02 | 72 | 1007.5 |
| 20260506081017 | 64 | 96 | 0.9 | 1.7 | 0.00 | 0.06 | 0.02 | 73 | 1007.5 |
| 20260506073028 | 61 | 69 | 0.9 | 2.6 | 0.00 | 0.06 | 0.02 | 77 | 1007.8 |
| 20260506072030 | 61 | 66 | 0.9 | 3.5 | 0.00 | 0.06 | 0.02 | 78 | 1007.9 |
| 20260506071018 | 60 | 99 | 0.9 | 1.7 | 0.00 | 0.06 | 0.02 | 81 | 1008.1 |